#timestamp,LO_Frequency,Hit,StdDev 
1581994815.6,286046998.9,N
1581994835.4,286046998.6,N
1581994855.3,286046999.1,N
1581994875.1,286046998.5,N
1581994876.0,286046998.5,N
1581994895.8,286046998.6,N
1581994915.7,286047000.9,N
1581994935.5,286047000.0,N
1581994955.3,286046999.4,N
1581994975.2,286046996.8,N
1581994995.0,286046996.8,N
1581994995.9,286046996.8,N
1581995015.8,286046999.1,N
1581995035.6,286046999.3,N
1581995055.4,286046997.8,N
1581995075.3,286046997.4,N
1581995095.1,286046998.9,N
1581995115.9,286046998.3,N
1581995135.7,286047001.1,N
1581995155.5,286047002.4,N
1581995175.4,286047001.2,N
1581995195.2,286046998.9,N
1581995215.0,286047000.6,N
1581995215.9,286047000.6,N
1581995235.8,286046998.4,N
1581995255.6,286046998.9,N
1581995275.5,286046999.7,N
1581995295.3,286047000.4,N
1581995315.1,286047000.3,N
1581995335.9,286046998.3,N
1581995355.7,286046999.4,N
1581995375.6,286047002.8,N
1581995395.4,286046998.5,N
1581995415.2,286046998.9,N
1581995435.1,286046998.6,N
1581995436.0,286046998.6,N
1581995455.8,286046998.6,N
1581995475.6,286046998.4,N
1581995495.5,286046998.6,N
1581995515.3,286046998.5,N
1581995535.2,286047000.2,N
1581995555.9,286047000.3,N
1581995575.7,286046998.4,N
1581995595.6,286046997.8,N
1581995615.4,286046996.3,N
1581995635.3,286046996.4,N
1581995655.1,286046998.0,N
1581995656.0,286046998.0,N
1581995675.8,286046996.7,N
1581995695.7,286046999.2,N
1581995715.5,286046999.4,N
1581995735.4,286046999.6,N
1581995755.2,286046997.0,N
1581995775.0,286046996.7,N
1581995775.9,286046996.7,N
1581995795.8,286046999.5,N
1581995815.6,286046999.4,N
1581995835.4,286046998.3,N
1581995855.3,286047000.9,N
1581995875.1,286047000.6,N
1581995895.9,286046999.8,N
1581995915.7,286047001.2,N
1581995935.5,286047000.4,N
1581995955.4,286046999.8,N
1581995975.2,286047002.6,N
1581995995.1,286047000.4,N
1581995996.0,286047000.4,N
1581996015.8,286047000.3,N
1581996035.6,286047000.6,N
1581996055.5,286047000.4,N
1581996075.3,286046998.6,N
1581996095.2,286046998.1,N
1581996115.9,286046998.5,N
1581996135.7,286047001.0,N
1581996155.6,286046998.9,N
1581996175.4,286046997.2,N
1581996195.2,286046999.4,N
1581996215.1,286046999.3,N
1581996216.0,286046999.3,N
1581996235.8,286046996.9,N
1581996255.7,286046998.9,N
1581996275.5,286046998.9,N
1581996295.3,286046999.2,N
1581996315.2,286047000.4,N
1581996335.0,286046998.8,N
1581996335.9,286046998.8,N
1581996355.8,286046998.5,N
1581996375.6,286046998.6,N
1581996395.4,286046998.3,N
1581996415.3,286046998.9,N
1581996435.1,286047001.1,N
1581996455.9,286047000.5,N
1581996475.7,286046998.8,N
1581996495.5,286046999.3,N
1581996515.4,286046996.8,N
1581996535.2,286046995.4,Y
1581996555.0,286046995.1,P
1581996555.9,286046995.1,N
1581996575.8,286046999.4,N
1581996595.6,286046998.4,N
1581996615.5,286047000.2,N
1581996635.3,286047000.4,N
1581996655.1,286046998.5,N
1581996675.9,286046999.9,N
1581996695.7,286046998.2,N
1581996715.6,286046998.2,N
1581996735.4,286046998.7,N
1581996755.2,286046999.1,N
1581996775.1,286047000.7,N
1581996776.0,286047000.7,N
1581996795.8,286046999.9,N
1581996815.7,286047002.6,N
1581996835.5,286047002.3,N
1581996855.3,286047004.4,N
1581996875.2,286047002.5,N
1581996895.0,286047002.5,N
1581996895.9,286047002.5,N
1581996915.7,286046999.7,N
1581996935.6,286047001.1,N
1581996955.4,286047001.0,N
1581996975.3,286046998.7,N
1581996995.1,286046998.6,N
1581996996.0,286046998.6,N
1581997015.8,286046998.2,N
1581997035.7,286046998.2,N
1581997055.5,286047001.8,N
1581997075.4,286047002.8,N
1581997095.2,286047004.3,N
1581997115.0,286047002.4,N
1581997115.9,286047002.4,N
1581997135.8,286047001.8,N
1581997155.6,286047003.6,N
1581997175.4,286047002.6,N
1581997195.3,286046999.8,N
1581997215.1,286047002.8,N
1581997235.9,286046999.7,N
1581997255.7,286047001.7,N
1581997275.5,286047004.1,N
1581997295.4,286047002.7,N
1581997315.2,286046999.7,N
1581997335.1,286047004.3,N
1581997336.0,286047004.3,N
1581997355.8,286047004.0,N
1581997375.6,286047001.7,N
1581997395.5,286047001.5,N
1581997415.3,286047002.2,N
1581997435.1,286047004.0,N
1581997455.9,286047003.5,N
1581997475.7,286047002.3,N
1581997495.6,286046999.9,N
1581997515.4,286047000.4,N
1581997535.2,286046998.1,N
1581997555.1,286047002.2,N
1581997556.0,286047002.2,N
1581997575.8,286047000.0,N
1581997595.7,286047001.2,N
1581997615.5,286047002.3,N
1581997635.3,286047000.2,N
1581997655.2,286047001.9,N
1581997675.0,286046998.3,N
1581997675.9,286046998.3,N
1581997695.8,286047001.2,N
1581997715.6,286047001.2,N
1581997735.4,286046998.1,N
1581997755.3,286047000.3,N
1581997775.1,286047000.9,N
1581997795.8,286047001.9,N
1581997815.7,286047001.0,N
1581997835.5,286046999.5,N
1581997855.4,286046995.4,N
1581997875.2,286046995.3,N
1581997895.0,286046997.6,N
1581997895.9,286046997.6,N
1581997915.8,286046999.0,N
1581997935.6,286046999.3,N
1581997955.5,286046999.0,N
1581997975.3,286046999.9,N
1581997995.1,286047001.0,N
1581998015.9,286047002.4,N
1581998035.7,286047001.4,N
1581998055.5,286047002.7,N
1581998075.4,286046998.6,N
1581998095.2,286046998.2,N
1581998115.1,286047002.1,N
1581998116.0,286047002.1,N
1581998135.8,286047003.1,N
1581998155.6,286047002.8,N
1581998175.5,286047002.2,N
1581998195.3,286047003.2,N
1581998215.2,286047003.2,N
1581998235.9,286047003.3,N
1581998255.7,286047005.6,N
1581998275.6,286047007.6,Y
1581998295.4,286047003.4,P
1581998315.3,286047005.9,P
1581998335.1,286047004.3,N
1581998336.0,286047004.3,N
1581998355.8,286047003.7,N
1581998375.7,286047004.2,N
1581998395.5,286047004.3,N
